Location: Namasale
(1.5000°N, 32.6167°E)
Time: 20:15:16
(UTC+00:00)

Vanguard 1 Rocket - Pass Details

Date: 22 April 2021
Orbit: 652 x 4224 km, 34.3° (Epoch: 09 May)

Event Time Altitude Azimuth Distance (km) Brightness Sun altitude
Rises 02:23:27 0° 225° (SW) 8,219 - -20.3°
Exits shadow 02:26:19 - 220° (SW) 7,911 11.7 -19.6°
Reaches altitude 10° 02:31:14 10° 212° (SSW) 7,396 11.6 -18.4°
Maximum altitude 02:51:18 27° 162° (SSE) 5,730 11.5 -13.5°
Drops below altitude 10° 03:06:59 10° 111° (ESE) 5,904 12.5 -9.7°
Sets 03:11:59 0° 99° (E) 6,403 13.2 -8.5°
